TimeCST,TemperatureF,Dew PointF,Humidity,Sea Level PressureIn,VisibilityMPH,Wind Direction,Wind SpeedMPH,Gust SpeedMPH,PrecipitationIn,Events,Conditions,WindDirDegrees,DateUTC
12:54 AM,33.1,21.0,61,30.26,10.0,South,13.8,-,N/A,,Clear,180,2013-01-07 06:54:00
1:54 AM,34.0,19.9,56,30.25,10.0,South,12.7,-,N/A,,Clear,180,2013-01-07 07:54:00
2:54 AM,34.0,19.9,56,30.25,10.0,South,15.0,-,N/A,,Clear,190,2013-01-07 08:54:00
3:54 AM,30.9,19.0,61,30.24,10.0,South,10.4,-,N/A,,Clear,180,2013-01-07 09:54:00
4:54 AM,32.0,19.9,61,30.22,10.0,South,15.0,-,N/A,,Clear,190,2013-01-07 10:54:00
5:54 AM,26.1,18.0,71,30.22,10.0,South,9.2,-,N/A,,Clear,180,2013-01-07 11:54:00
6:54 AM,30.9,19.0,61,30.22,10.0,South,10.4,-,N/A,,Clear,190,2013-01-07 12:54:00
7:54 AM,30.9,19.0,61,30.23,10.0,SSW,15.0,-,N/A,,Clear,200,2013-01-07 13:54:00
8:54 AM,34.0,19.9,56,30.23,10.0,SSW,19.6,25.3,N/A,,Clear,200,2013-01-07 14:54:00
9:54 AM,37.0,21.0,52,30.22,10.0,SSW,18.4,-,N/A,,Clear,200,2013-01-07 15:54:00
10:54 AM,39.9,21.9,49,30.22,10.0,South,16.1,25.3,N/A,,Clear,190,2013-01-07 16:54:00
11:54 AM,46.0,23.0,40,30.18,10.0,SSW,18.4,23.0,N/A,,Clear,210,2013-01-07 17:54:00
12:54 PM,48.9,24.1,38,30.13,10.0,SSW,17.3,21.9,N/A,,Clear,200,2013-01-07 18:54:00
1:54 PM,50.0,24.1,36,30.09,10.0,SSW,18.4,27.6,N/A,,Clear,200,2013-01-07 19:54:00
2:54 PM,53.1,24.1,32,30.08,10.0,SSW,18.4,25.3,N/A,,Clear,210,2013-01-07 20:54:00
3:54 PM,50.0,24.1,36,30.08,10.0,SSW,17.3,-,N/A,,Clear,200,2013-01-07 21:54:00
5:54 PM,45.0,25.0,46,30.07,10.0,South,13.8,-,N/A,,Clear,180,2013-01-07 23:54:00
6:54 PM,45.0,25.0,46,30.07,10.0,South,16.1,-,N/A,,Clear,190,2013-01-08 00:54:00
7:54 PM,44.1,25.0,47,30.06,10.0,South,18.4,29.9,N/A,,Clear,190,2013-01-08 01:54:00
8:54 PM,42.1,24.1,49,30.06,10.0,South,11.5,-,N/A,,Clear,190,2013-01-08 02:54:00
9:54 PM,42.1,24.1,49,30.05,10.0,SSW,12.7,-,N/A,,Clear,200,2013-01-08 03:54:00
10:54 PM,39.0,23.0,53,30.05,10.0,SSW,12.7,-,N/A,,Clear,200,2013-01-08 04:54:00
11:54 PM,36.0,23.0,59,30.04,10.0,South,12.7,-,N/A,,Clear,190,2013-01-08 05:54:00